Weather History for KNEW - November, 2011

Change the Weather History Date:

Saturday, November 12, 2011

  Actual Average Record
Temperature  
Mean Temperature 57 °F 64 °F  
Max Temperature 72 °F 73 °F 86 °F (2003)
Min Temperature 42 °F 54 °F 30 °F (1968)
Degree Days  
Heating Degree Days 8 4  
Month to date heating degree days 44 36  
Since 1 July heating degree days 72 61  
Cooling Degree Days 0 2  
Month to date cooling degree days 25 38  
Year to date cooling degree days 3381 2947  
Growing Degree Days 9 (Base 50)    
Moisture  
Dew Point 47 °F    
Average Humidity 60    
Maximum Humidity 76    
Minimum Humidity 44    
Precipitation  
Precipitation 0.00 in 0.14 in 2.66 in (1997)
Month to date precipitation 0.20 1.68  
Year to date precipitation 50.35 54.40  
Snow  
Snow 0.00 in - - ()
Month to date snowfall 0.0  
Since 1 July snowfall 0.0  
Since 1 September snowfall 0.0  
Snow Depth 0.00 in    
Sea Level Pressure  
Sea Level Pressure 30.19 in    
Wind  
Wind Speed 8 mph (SE)    
Max Wind Speed 16 mph    
Max Gust Speed 22 mph    
Visibility 10 miles    
Events      
T = Trace of Precipitation, MM = Missing Value Source: NWS Daily Summary

Daily Weather History Graph

Daily Weather History Graph

Search for Another Location

Airport or City:

Trip Planner

Search our weather history database for the weather conditions in past years. The results will help you decide how hot, cold, wet, or windy it might be!

Date:

Astronomy

Nov. 12, 2011 Rise Set
Actual Time 6:22 AM CST 5:05 PM CST
Civil Twilight 5:57 AM CST 5:30 PM CST
Nautical Twilight 5:28 AM CST 5:59 PM CST
Astronomical Twilight 5:00 AM CST 6:27 PM CST
Moon 6:29 PM CST (11/12) 7:57 AM CST (11/12)
Length of Visible Light 11h 33m
Length of Day
10h 42m
Full, 97% of the Moon is Illuminated
Nov 12
Full
Nov 18
Last Quarter
Nov 25
New
Dec 2
First Quarter
Dec 10
Full

Hourly Weather History & Observations

Time (CST) Temp. Dew Point Humidity Pressure Visibility Wind Dir Wind Speed Gust Speed Precip Events Conditions
12:53 AM 48.9 °F 37.9 °F 66% 30.22 in 10.0 mi South 4.6 mph - N/A   Clear
1:53 AM 48.9 °F 39.0 °F 69% 30.21 in 10.0 mi SSE 5.8 mph - N/A   Clear
2:53 AM 48.9 °F 41.0 °F 74% 30.21 in 10.0 mi SE 5.8 mph - N/A   Clear
3:53 AM 50.0 °F 42.1 °F 74% 30.20 in 10.0 mi SE 6.9 mph - N/A   Clear
4:53 AM 51.1 °F 41.0 °F 68% 30.19 in 10.0 mi SE 6.9 mph - N/A   Clear
5:53 AM 51.1 °F 41.0 °F 68% 30.21 in 10.0 mi SE 8.1 mph - N/A   Clear
6:53 AM 53.6 °F 44.6 °F 72% 30.24 in 10.0 mi ESE 6.9 mph - N/A   Clear
7:53 AM 57.9 °F 45.0 °F 62% 30.23 in 10.0 mi ESE 11.5 mph - N/A   Clear
8:53 AM 63.0 °F 46.0 °F 54% 30.24 in 10.0 mi ESE 11.5 mph - N/A   Clear
9:53 AM 66.0 °F 46.0 °F 48% 30.25 in 10.0 mi ESE 10.4 mph - N/A   Scattered Clouds
10:53 AM 70.0 °F 46.0 °F 42% 30.23 in 10.0 mi SE 15.0 mph - N/A   Scattered Clouds
11:53 AM 70.0 °F 46.9 °F 44% 30.22 in 10.0 mi SE 11.5 mph - N/A   Overcast
12:53 PM 69.1 °F 46.9 °F 45% 30.19 in 10.0 mi SE 10.4 mph - N/A   Mostly Cloudy
1:53 PM 70.0 °F 46.9 °F 44% 30.19 in 10.0 mi SSE 11.5 mph - N/A   Mostly Cloudy
2:53 PM 69.1 °F 48.0 °F 47% 30.16 in 10.0 mi SE 16.1 mph - N/A   Scattered Clouds
3:53 PM 69.1 °F 48.9 °F 49% 30.15 in 10.0 mi SE 15.0 mph - N/A   Clear
4:53 PM 64.0 °F 51.1 °F 63% 30.16 in 10.0 mi ESE 10.4 mph - N/A   Partly Cloudy
5:53 PM 62.1 °F 53.1 °F 72% 30.15 in 10.0 mi ESE 9.2 mph - N/A   Clear
6:53 PM 62.1 °F 53.1 °F 72% 30.15 in 10.0 mi SE 12.7 mph - N/A   Clear
7:53 PM 60.1 °F 53.1 °F 78% 30.15 in 10.0 mi SE 11.5 mph - N/A   Clear
8:53 PM 60.1 °F 53.1 °F 78% 30.15 in 10.0 mi SE 10.4 mph - N/A   Clear
9:53 PM 59.0 °F 53.1 °F 81% 30.15 in 10.0 mi SE 10.4 mph - N/A   Clear
10:53 PM 59.0 °F 53.1 °F 81% 30.14 in 10.0 mi SE 10.4 mph - N/A   Clear
11:53 PM 61.0 °F 53.1 °F 75% 30.12 in 10.0 mi SE 9.2 mph - N/A   Clear